FW4267 Weather Reports


Display with metric or nautical units.
time (UTC)temp
F
wind
direction
speed
MPH
gust
MPH
rain 1hr
in
rain 24hr
in
rain mn
in
humidity
%
barometer
mb
20260905080307 74 323 1.0 5.0 0.00 0.00 0.00 76 1024.1
20260905075805 74 286 1.0 5.0 0.00 0.00 0.00 76 1024.0
20260905075306 74 85 0.0 2.0 0.00 0.00 0.00 77 1023.9
20260905074809 73 85 0.0 3.0 0.00 0.00 0.00 80 1023.8
20260905074305 72 326 0.0 4.0 0.00 0.00 0.00 80 1024.0
20260905073805 71 244 1.0 4.0 0.00 0.00 0.00 81 1023.9
20260905073432 71 300 0.0 2.0 0.00 0.00 0.00 82 1023.9
20260905073401 71 316 0.0 4.0 0.00 0.00 0.00 81 1023.8
20260905072306 71 320 0.0 2.0 0.00 0.00 0.00 82 1023.9
20260905071806 70 324 0.0 2.0 0.00 0.00 0.00 83 1023.8
20260905071305 70 271 0.0 3.0 0.00 0.00 0.00 83 1023.8
20260905070806 71 293 1.0 3.0 0.00 0.00 0.00 82 1023.9
20260905070305 71 310 1.0 2.0 0.00 0.00 0.00 83 1023.8
20260905065804 70 11 0.0 2.0 0.00 0.00 0.00 86 1023.7
20260905065306 69 293 0.0 2.0 0.00 0.00 0.00 87 1023.6
20260905064804 69 313 0.0 1.0 0.00 0.00 0.00 88 1023.6
20260905064304 68 247 0.0 1.0 0.00 0.00 0.00 89 1023.5
20260905063803 68 234 0.0 1.0 0.00 0.00 0.00 90 1023.5
20260905063618 68 230 0.0 1.0 0.00 0.00 0.00 91 1023.5
20260905062807 67 142 0.0 1.0 0.00 0.00 0.00 91 1023.5
20260905062305 67 142 0.0 1.0 0.00 0.00 0.00 92 1023.3
20260905061803 67 141 0.0 0.0 0.00 0.00 0.00 92 1023.2
20260905061301 66 141 0.0 0.0 0.00 0.00 0.00 92 1023.3
20260905060820 66 141 0.0 0.0 0.00 0.00 0.00 92 1023.2
20260905060302 65 141 0.0 0.0 0.00 0.00 0.00 92 1023.1
20260905055806 65 141 0.0 1.0 0.00 0.00 0.00 92 1023.0
20260905055306 65 141 0.0 1.0 0.00 0.00 0.00 92 1023.0
20260905054803 65 288 0.0 0.0 0.00 0.00 0.00 91 1022.9
20260905054302 65 288 0.0 0.0 0.00 0.00 0.00 91 1022.8
20260905053804 65 288 0.0 0.0 0.00 0.00 0.00 91 1022.7
20260905053302 65 288 0.0 0.0 0.00 0.00 0.00 90 1022.8
20260905052802 65 288 0.0 0.0 0.00 0.00 0.00 90 1022.7
20260905052306 65 288 0.0 1.0 0.00 0.00 0.00 90 1022.6
20260905051802 66 288 0.0 1.0 0.00 0.00 0.00 90 1022.6
20260905051303 66 289 0.0 0.0 0.00 0.00 0.00 90 1022.5
20260905050802 66 289 0.0 0.0 0.00 0.00 0.00 89 1022.5
20260905050301 66 288 0.0 0.0 0.00 0.00 0.00 89 1022.6
20260905045801 66 17 0.0 0.0 0.00 0.00 0.00 89 1022.5
20260905045301 66 313 0.0 0.0 0.00 0.00 0.00 88 1022.5
20260905044802 67 313 0.0 0.0 0.00 0.00 0.00 88 1022.5
20260905044301 67 313 0.0 1.0 0.00 0.00 0.00 88 1022.5
20260905043806 67 313 0.0 2.0 0.00 0.00 0.00 88 1022.5
20260905043300 67 288 0.0 3.0 0.00 0.00 0.00 88 1022.4
20260905042802 67 300 1.0 3.0 0.00 0.00 0.00 87 1022.4
20260905042300 67 293 1.0 3.0 0.00 0.00 0.00 87 1022.3
20260905041801 68 313 1.0 4.0 0.00 0.00 0.00 87 1022.2
20260905041302 67 254 1.0 4.0 0.00 0.00 0.00 86 1022.3
20260905040800 68 272 1.0 3.0 0.00 0.00 0.00 86 1022.3
20260905040300 68 292 1.0 3.0 0.00 0.00 0.00 86 1022.4
20260905040114 67 305 0.0 2.0 0.00 0.00 0.00 86 1022.4
20260905035259 67 299 0.0 2.0 0.00 0.00 0.00 85 1022.4
20260905034800 67 262 1.0 2.0 0.00 0.00 0.00 85 1022.4
20260905034301 67 257 0.0 1.0 0.00 0.00 0.00 84 1022.3
20260905033759 67 257 0.0 1.0 0.00 0.00 0.00 84 1022.4
20260905033300 67 148 0.0 1.0 0.00 0.00 0.00 84 1022.3
20260905032800 67 111 0.0 1.0 0.00 0.00 0.00 83 1022.4
20260905032300 68 111 0.0 0.0 0.00 0.00 0.00 82 1022.4
20260905031800 68 111 0.0 2.0 0.00 0.00 0.00 83 1022.3
20260905031259 68 111 0.0 2.0 0.00 0.00 0.00 82 1022.3
20260905030800 68 134 0.0 2.0 0.00 0.00 0.00 82 1022.3
20260905030259 68 223 0.0 3.0 0.00 0.00 0.00 82 1022.2
20260905025801 68 282 0.0 3.0 0.00 0.00 0.00 81 1022.3
20260905025300 69 289 0.0 1.0 0.00 0.00 0.00 81 1022.2
20260905024759 69 293 0.0 2.0 0.00 0.00 0.00 81 1022.3
20260905024259 69 295 0.0 2.0 0.00 0.00 0.00 80 1022.3
20260905023759 69 282 0.0 2.0 0.00 0.00 0.00 81 1022.1
20260905023256 69 113 0.0 0.0 0.00 0.00 0.00 80 1022.0
20260905022758 69 113 0.0 1.0 0.00 0.00 0.00 80 1022.0
20260905022301 69 113 0.0 1.0 0.00 0.00 0.00 79 1021.9
20260905021758 69 288 0.0 1.0 0.00 0.00 0.00 79 1022.0
20260905021259 69 293 0.0 1.0 0.00 0.00 0.00 78 1022.1
20260905020759 70 97 0.0 1.0 0.00 0.00 0.00 77 1022.1
20260905020257 70 89 0.0 1.0 0.00 0.00 0.00 77 1022.0
20260905020105 70 237 0.0 4.0 0.00 0.00 0.00 77 1021.8
20260905015255 70 271 1.0 4.0 0.00 0.00 0.00 77 1021.7
20260905014757 70 285 1.0 4.0 0.00 0.00 0.00 77 1021.8
20260905014258 70 288 0.0 3.0 0.00 0.00 0.00 77 1021.8
20260905013758 70 279 0.0 2.0 0.00 0.00 0.00 77 1021.8
20260905013255 70 89 0.0 0.0 0.00 0.00 0.00 76 1021.9
20260905013108 70 89 0.0 1.0 0.00 0.00 0.00 76 1022.0
20260905012258 70 89 0.0 1.0 0.00 0.00 0.00 76 1022.0
20260905012110 70 89 0.0 0.0 0.00 0.00 0.00 75 1022.0
20260905011256 71 89 0.0 0.0 0.00 0.00 0.00 74 1022.0
20260905010809 71 89 0.0 0.0 0.00 0.00 0.00 73 1022.0
20260905010254 71 89 0.0 0.0 0.00 0.00 0.00 73 1022.1
20260905005757 72 89 0.0 0.0 0.00 0.00 0.00 72 1022.1
20260905005259 72 89 0.0 2.0 0.00 0.00 0.00 72 1022.0
20260905004756 72 89 0.0 2.0 0.00 0.00 0.00 72 1022.0
20260905004400 72 96 0.0 2.0 0.00 0.00 0.00 71 1022.0
20260905003255 73 111 0.0 2.0 0.00 0.00 0.00 71 1022.0
20260905003113 73 155 0.0 3.0 0.00 0.00 0.00 70 1021.9
20260905002255 73 321 0.0 3.0 0.00 0.00 0.00 70 1021.8
20260905001808 73 107 0.0 1.0 0.00 0.00 0.00 69 1021.8
20260905001255 73 123 0.0 1.0 0.00 0.00 0.00 69 1021.8
20260905000756 73 86 0.0 1.0 0.00 0.00 0.00 68 1021.8
20260905000256 74 86 0.0 1.0 0.00 0.00 0.00 67 1021.9
20260904235754 74 86 0.0 1.0 0.00 0.00 0.00 66 1021.8
20260904235254 74 121 0.0 2.0 0.00 0.00 0.00 65 1021.7
20260904234751 74 103 0.0 2.0 0.00 0.00 0.00 64 1021.8
20260904234729 75 240 1.0 5.0 0.00 0.00 0.00 62 1021.8
20260904234723 75 92 0.0 5.0 0.00 0.00 0.00 64 1021.8
20260904233255 76 109 0.0 2.0 0.00 0.00 0.00 61 1021.8
20260904232755 76 94 0.0 3.0 0.00 0.00 0.00 61 1021.9
20260904232255 76 299 0.0 5.0 0.00 0.00 0.00 60 1021.8
20260904231755 77 298 1.0 5.0 0.00 0.00 0.00 60 1021.8
20260904231254 77 299 1.0 3.0 0.00 0.00 0.00 59 1021.7
20260904230753 77 317 0.0 4.0 0.00 0.00 0.00 58 1021.7
20260904230622 77 252 2.0 4.0 0.00 0.00 0.00 57 1021.7
20260904225754 77 295 2.0 9.0 0.00 0.00 0.00 57 1021.5
20260904225252 77 272 3.0 9.0 0.00 0.00 0.00 58 1021.4
20260904224754 76 258 0.0 3.0 0.00 0.00 0.00 58 1021.4
20260904224558 75 288 1.0 3.0 0.00 0.00 0.00 59 1021.4
20260904224105 75 278 0.0 2.0 0.00 0.00 0.00 58 1021.4
20260904223252 74 62 0.0 2.0 0.00 0.00 0.00 58 1021.4
20260904222755 74 72 0.0 2.0 0.00 0.00 0.00 58 1021.4
20260904222251 73 10 0.0 2.0 0.00 0.00 0.00 58 1021.3
20260904222058 73 97 0.0 2.0 0.00 0.00 0.00 59 1021.2
20260904221254 73 276 0.0 0.0 0.00 0.00 0.00 58 1021.2
20260904220755 73 285 0.0 0.0 0.00 0.00 0.00 56 1021.2
20260904220253 74 285 0.0 0.0 0.00 0.00 0.00 55 1021.1
20260904215752 74 285 0.0 1.0 0.00 0.00 0.00 54 1021.0
20260904215252 74 285 0.0 1.0 0.00 0.00 0.00 54 1021.0
20260904214751 74 285 0.0 0.0 0.00 0.00 0.00 54 1020.9
20260904214249 74 285 0.0 0.0 0.00 0.00 0.00 55 1020.9
20260904213752 75 285 0.0 1.0 0.00 0.00 0.00 52 1020.8
20260904213250 75 285 0.0 1.0 0.00 0.00 0.00 51 1020.8
20260904213104 76 285 0.0 1.0 0.00 0.00 0.00 51 1020.8
20260904212252 76 285 1.0 1.0 0.00 0.00 0.00 50 1020.7
20260904212105 76 285 0.0 2.0 0.00 0.00 0.00 50 1020.7
20260904211250 76 285 1.0 2.0 0.00 0.00 0.00 49 1020.7
20260904210751 76 285 0.0 0.0 0.00 0.00 0.00 50 1020.6
20260904210249 76 285 0.0 0.0 0.00 0.00 0.00 51 1020.7
20260904210100 76 285 0.0 0.0 0.00 0.00 0.00 51 1020.6
20260904205250 76 286 0.0 0.0 0.00 0.00 0.00 51 1020.6
20260904204751 76 286 0.0 1.0 0.00 0.00 0.00 51 1020.6
20260904204251 77 286 0.0 1.0 0.00 0.00 0.00 50 1020.5
20260904203751 77 286 1.0 2.0 0.00 0.00 0.00 49 1020.4
20260904203251 77 286 1.0 2.0 0.00 0.00 0.00 48 1020.3
20260904202750 78 286 1.0 1.0 0.00 0.00 0.00 47 1020.2
20260904202249 79 286 1.0 2.0 0.00 0.00 0.00 46 1020.2
20260904202056 80 286 1.0 2.0 0.00 0.00 0.00 44 1020.0
20260904201247 79 286 1.0 2.0 0.00 0.00 0.00 43 1019.9
20260904200750 79 286 2.0 2.0 0.00 0.00 0.00 45 1019.9
20260904200613 79 286 2.0 2.0 0.00 0.00 0.00 45 1019.8
20260904195752 80 286 2.0 2.0 0.00 0.00 0.00 43 1019.7
20260904195248 80 286 2.0 2.0 0.00 0.00 0.00 42 1019.6
20260904194749 80 286 2.0 2.0 0.00 0.00 0.00 42 1019.5
20260904194249 81 286 2.0 2.0 0.00 0.00 0.00 42 1019.4
20260904193749 81 286 1.0 2.0 0.00 0.00 0.00 41 1019.4
20260904193248 81 286 2.0 2.0 0.00 0.00 0.00 40 1019.2
20260904192748 82 286 1.0 2.0 0.00 0.00 0.00 40 1019.2
20260904192601 81 286 1.0 2.0 0.00 0.00 0.00 41 1019.1
20260904191748 82 286 1.0 2.0 0.00 0.00 0.00 41 1019.1
20260904191249 82 285 1.0 1.0 0.00 0.00 0.00 40 1019.0
20260904190747 82 285 1.0 1.0 0.00 0.00 0.00 39 1019.0
20260904190417 83 285 1.0 1.0 0.00 0.00 0.00 39 1018.8
20260904190345 82 285 1.0 1.0 0.00 0.00 0.00 39 1019.0
20260904185248 83 285 1.0 1.0 0.00 0.00 0.00 38 1018.8
20260904185054 83 288 1.0 1.0 0.00 0.00 0.00 37 1018.8
20260904184247 84 288 1.0 2.0 0.00 0.00 0.00 37 1018.8
20260904183748 84 288 1.0 2.0 0.00 0.00 0.00 36 1018.7
20260904183247 85 288 1.0 2.0 0.00 0.00 0.00 35 1018.6
20260904182750 86 296 0.0 1.0 0.00 0.00 0.00 34 1018.5
20260904182248 87 298 0.0 1.0 0.00 0.00 0.00 34 1018.5
20260904181748 87 298 1.0 1.0 0.00 0.00 0.00 33 1018.6
20260904181244 88 298 1.0 1.0 0.00 0.00 0.00 32 1018.5
20260904180744 89 298 1.0 1.0 0.00 0.00 0.00 31 1018.5
20260904180245 89 298 0.0 1.0 0.00 0.00 0.00 31 1018.4
20260904175746 90 298 0.0 1.0 0.00 0.00 0.00 30 1018.4
20260904175247 91 298 0.0 1.0 0.00 0.00 0.00 29 1018.5
20260904174747 92 298 0.0 1.0 0.00 0.00 0.00 29 1018.4
20260904174246 92 298 0.0 1.0 0.00 0.00 0.00 28 1018.4
20260904173747 93 298 0.0 1.0 0.00 0.00 0.00 28 1018.3
20260904173246 93 295 0.0 2.0 0.00 0.00 0.00 27 1018.4
20260904173056 94 293 0.0 2.0 0.00 0.00 0.00 27 1018.3
20260904172247 94 292 0.0 3.0 0.00 0.00 0.00 27 1018.3
20260904171745 95 292 0.0 3.0 0.00 0.00 0.00 27 1018.2
20260904171244 95 282 0.0 4.0 0.00 0.00 0.00 26 1018.2
20260904170746 95 338 1.0 4.0 0.00 0.00 0.00 26 1018.2
20260904170600 95 268 2.0 4.0 0.00 0.00 0.00 25 1018.1
20260904165745 96 305 0.0 5.0 0.00 0.00 0.00 25 1018.1
20260904165244 96 317 2.0 5.0 0.00 0.00 0.00 24 1018.2
20260904164746 96 314 2.0 4.0 0.00 0.00 0.00 24 1018.2
20260904164258 96 285 1.0 3.0 0.00 0.00 0.00 24 1018.2
20260904163741 96 290 1.0 3.0 0.00 0.00 0.00 24 1018.2
20260904163257 97 298 0.0 3.0 0.00 0.00 0.00 24 1018.2
20260904162744 97 305 2.0 4.0 0.00 0.00 0.00 23 1018.3
20260904162246 97 292 1.0 4.0 0.00 0.00 0.00 23 1018.3
20260904161744 97 314 2.0 4.0 0.00 0.00 0.00 23 1018.3
20260904161244 97 313 0.0 3.0 0.00 0.00 0.00 24 1018.4
20260904160746 96 321 2.0 3.0 0.00 0.00 0.00 23 1018.4
20260904160245 97 204 0.0 2.0 0.00 0.00 0.00 25 1018.4
20260904155744 97 185 0.0 2.0 0.00 0.00 0.00 24 1018.4
20260904155554 97 281 0.0 6.0 0.00 0.00 0.00 23 1018.4
20260904154744 98 268 3.0 6.0 0.00 0.00 0.00 22 1018.3
20260904154243 98 269 0.0 7.0 0.00 0.00 0.00 23 1018.4
20260904153745 98 314 3.0 7.0 0.00 0.00 0.00 22 1018.4
20260904153415 98 264 2.0 6.0 0.00 0.00 0.00 23 1018.4
20260904153343 98 300 1.0 6.0 0.00 0.00 0.00 24 1018.4
20260904152241 98 317 2.0 6.0 0.00 0.00 0.00 22 1018.4
20260904151740 98 310 3.0 7.0 0.00 0.00 0.00 23 1018.4
20260904151255 98 317 1.0 7.0 0.00 0.00 0.00 23 1018.4
20260904150740 98 306 1.0 5.0 0.00 0.00 0.00 23 1018.5
20260904150243 98 309 1.0 5.0 0.00 0.00 0.00 24 1018.5
20260904145742 99 4 1.0 7.0 0.00 0.00 0.00 23 1018.5
20260904145241 99 319 2.0 7.0 0.00 0.00 0.00 22 1018.5
20260904144744 99 305 0.0 5.0 0.00 0.00 0.00 24 1018.5
20260904144548 99 272 1.0 5.0 0.00 0.00 0.00 24 1018.6
20260904143741 99 319 0.0 4.0 0.00 0.00 0.00 23 1018.6
20260904143552 99 290 2.0 7.0 0.00 0.00 0.00 22 1018.7
20260904142742 99 292 2.0 7.0 0.00 0.00 0.00 22 1018.7
20260904142241 99 268 2.0 6.0 0.00 0.00 0.00 22 1018.6
20260904141745 99 309 2.0 6.0 0.00 0.00 0.00 22 1018.6
20260904141241 99 298 2.0 6.0 0.00 0.00 0.00 22 1018.8
20260904141050 100 303 1.0 5.0 0.00 0.00 0.00 24 1018.7
20260904140241 99 313 1.0 3.0 0.00 0.00 0.00 25 1018.8
20260904135741 99 259 1.0 3.0 0.00 0.00 0.00 24 1018.9
20260904135243 98 344 1.0 3.0 0.00 0.00 0.00 25 1018.9
20260904134740 98 279 0.0 9.0 0.00 0.00 0.00 25 1018.9
20260904134556 98 278 3.0 9.0 0.00 0.00 0.00 24 1019.0
20260904134049 98 25 0.0 6.0 0.00 0.00 0.00 26 1019.0
20260904133241 98 255 2.0 6.0 0.00 0.00 0.00 24 1019.1
20260904132740 98 314 2.0 6.0 0.00 0.00 0.00 24 1019.0
20260904132557 99 303 1.0 4.0 0.00 0.00 0.00 25 1019.1
20260904131913 97 283 2.0 7.0 0.00 0.00 0.00 25 1019.1
20260904131840 98 276 1.0 7.0 0.00 0.00 0.00 25 1019.1
20260904130738 98 279 4.0 6.0 0.00 0.00 0.00 24 1019.2
20260904130238 98 320 2.0 7.0 0.00 0.00 0.00 24 1019.2
20260904125740 98 320 3.0 7.0 0.00 0.00 0.00 24 1019.1
20260904125238 98 299 1.0 7.0 0.00 0.00 0.00 25 1019.3
20260904124742 98 292 3.0 7.0 0.00 0.00 0.00 24 1019.3
20260904124239 98 316 2.0 7.0 0.00 0.00 0.00 24 1019.4
20260904124050 97 4 1.0 11.0 0.00 0.00 0.00 25 1019.3
20260904123236 97 288 5.0 11.0 0.00 0.00 0.00 23 1019.4
20260904122736 98 303 3.0 6.0 0.00 0.00 0.00 22 1019.3
20260904122237 98 303 2.0 4.0 0.00 0.00 0.00 22 1019.3
20260904121737 98 321 1.0 6.0 0.00 0.00 0.00 24 1019.3
20260904121239 97 282 1.0 6.0 0.00 0.00 0.00 24 1019.3
20260904120739 96 278 1.0 6.0 0.00 0.00 0.00 24 1019.3
20260904120241 96 272 2.0 6.0 0.00 0.00 0.00 23 1019.4
20260904115738 97 310 1.0 4.0 0.00 0.00 0.00 24 1019.4
20260904115553 96 285 0.0 5.0 0.00 0.00 0.00 26 1019.4
20260904114737 97 295 2.0 5.0 0.00 0.00 0.00 23 1019.4
20260904114234 97 305 0.0 4.0 0.00 0.00 0.00 27 1019.4
20260904114045 96 234 1.0 4.0 0.00 0.00 0.00 26 1019.4
20260904113235 95 282 1.0 4.0 0.00 0.00 0.00 26 1019.4
20260904112738 95 292 2.0 4.0 0.00 0.00 0.00 26 1019.4
20260904112549 95 313 1.0 3.0 0.00 0.00 0.00 26 1019.4
20260904111737 95 68 0.0 3.0 0.00 0.00 0.00 32 1019.4
20260904111238 94 86 1.0 3.0 0.00 0.00 0.00 32 1019.3
20260904110736 93 264 0.0 3.0 0.00 0.00 0.00 32 1019.3
20260904110238 93 302 1.0 3.0 0.00 0.00 0.00 32 1019.4
20260904105736 93 107 0.0 3.0 0.00 0.00 0.00 34 1019.4
20260904105238 93 247 0.0 2.0 0.00 0.00 0.00 35 1019.4
20260904104737 92 111 1.0 3.0 0.00 0.00 0.00 35 1019.5
20260904104238 91 75 2.0 4.0 0.00 0.00 0.00 35 1019.6
20260904103736 91 100 2.0 4.0 0.00 0.00 0.00 35 1019.6
20260904103238 91 212 0.0 5.0 0.00 0.00 0.00 37 1019.6
20260904102735 90 97 4.0 5.0 0.00 0.00 0.00 36 1019.7
20260904102237 90 65 1.0 4.0 0.00 0.00 0.00 40 1019.7
20260904101735 89 78 1.0 5.0 0.00 0.00 0.00 39 1019.8
20260904101236 89 94 2.0 5.0 0.00 0.00 0.00 40 1019.7
20260904100837 88 100 0.0 3.0 0.00 0.00 0.00 42 1019.8
20260904095737 88 69 1.0 3.0 0.00 0.00 0.00 41 1019.9
20260904095235 87 109 1.0 3.0 0.00 0.00 0.00 43 1019.9
20260904094735 86 116 0.0 3.0 0.00 0.00 0.00 44 1019.9
20260904094235 85 96 1.0 5.0 0.00 0.00 0.00 44 1019.9
20260904093735 85 63 4.0 5.0 0.00 0.00 0.00 45 1019.9
20260904093233 85 94 2.0 4.0 0.00 0.00 0.00 47 1019.9
20260904092732 84 97 2.0 4.0 0.00 0.00 0.00 48 1019.9
20260904092236 84 85 1.0 4.0 0.00 0.00 0.00 49 1020.0
20260904091733 84 87 1.0 4.0 0.00 0.00 0.00 50 1020.0
20260904091546 83 102 1.0 4.0 0.00 0.00 0.00 51 1020.0
20260904090734 83 76 2.0 4.0 0.00 0.00 0.00 52 1020.0
20260904090246 82 83 1.0 4.0 0.00 0.00 0.00 53 1020.0
20260904085733 82 104 1.0 3.0 0.00 0.00 0.00 55 1019.9
20260904085233 81 247 0.0 5.0 0.00 0.00 0.00 55 1020.0
20260904084734 81 89 1.0 5.0 0.00 0.00 0.00 56 1020.0
20260904084542 80 94 1.0 5.0 0.00 0.00 0.00 57 1020.0
20260904083734 80 102 1.0 4.0 0.00 0.00 0.00 58 1020.0
20260904083233 80 82 2.0 4.0 0.00 0.00 0.00 57 1019.9
20260904082732 80 79 0.0 3.0 0.00 0.00 0.00 57 1019.9
20260904082237 79 92 0.0 3.0 0.00 0.00 0.00 57 1019.9
20260904081733 78 75 0.0 2.0 0.00 0.00 0.00 59 1019.9
20260904081415 77 89 0.0 3.0 0.00 0.00 0.00 61 1020.0
20260904081338 78 82 0.0 2.0 0.00 0.00 0.00 61 1020.0